www.pogodaiklimat.ru

Погода и климат >> Архив погоды >> Гана >> Kete-Krachi


ПОГОДА в Kete-Krachi

  • Прогноз погоды в Kete-Krachi
  • Монитор погоды в Kete-Krachi
  • Климат города

АРХИВ ПОГОДЫ в Kete-Krachi

Время (UTC), дата Ветер
(напр.,м/с)
 
Видим.   Явления Облачность Т
(С)
Тd
(С)
f
(%)
Тe
(С)
Тes
(С)
Комфортность P
(гПа)
Po
(гПа)
Тmin
(С)
Tmax
(С)
R
(мм)
S
(см)
06 16.03 штиль 0 22 км 4/1 360 м
[Sc Ci sp]
+26.7 +23.7 84 +37 +37 очень
душно
1009.4 1009.0 +26.3
12 16.03 СЗ 2 25 км 5/4 500 м
[Cu med, cong Ci sp]
+35.5 +24.1 52 +47 +61 опасность
перегрева
1011.1 1011.0
15 16.03 ЮЗ 1 25 км 6/4 540 м
[Cb cap Ci sp]
+38.0 +21.8 39 +46 +53 опасность
перегрева
1007.3 1007.0
18 16.03 штиль 0 22 км 6/0
[Ci sp]
+35.5 +21.7 45 +44 +44 опасность
перегрева
1005.1 1005.0 +38.7
06 17.03 ЮЗ 1 22 км 4/4 360 м
[Sc]
+27.5 +24.1 82 +38 +38 очень
душно
1008.4 1008.0 +26.9
09 17.03 ЮЗ 1 25 км 6/4 480 м
[Cu med, cong Ci sp]
+30.0 +23.9 70 +41 +48 опасность
перегрева
1011.3 1011.0
15 17.03 ЮЗ 2 25 км 10/3 540 м
[Cb cap Ac trans Cs]
+37.8 +19.8 35 +43 +47 опасность
перегрева
1007.0 1007.0
18 17.03 штиль 0 24 км 6/1 540 м
[Cb cap Ac trans Ci sp]
+32.2 +18.8 45 +37 +37 очень
душно
1005.9 1006.0 +37.8
21 17.03 ЮВ 2 18 км 4/0
[Ci sp]
+32.5 +25.6 67 +47 +47 опасность
перегрева
1008.1 1008.0
00 18.03 ЮЗ 2 18 км ясно +30.3 +24.5 71 +43 +43 опасность
перегрева
1005.5 1006.0
03 18.03 Ю 1 18 км ясно +28.5 +24.4 79 +40 +40 очень
душно
1008.5 1009.0
06 18.03 Ю 1 22 км 4/3 360 м
[Sc Ci sp]
+27.2 +24.2 84 +38 +38 очень
душно
1009.6 1010.0 +26.8
09 18.03 ЮЗ 4 25 км 5/4 500 м
[Cu med, cong Ci sp]
+30.5 +24.4 70 +43 +47 опасность
перегрева
1012.0 1012.0
12 18.03 ЮЗ 2 25 км 3/1 540 м
[Cu med, cong Ci sp]
+34.6 +24.1 55 +47 +67 опасность
перегрева
1011.2 1011.0
18 18.03 ЮЗ 2 25 км 6/0
[Ac trans]
+36.3 +21.2 42 +44 +44 опасность
перегрева
1005.5 1006.0 +38.0
00 19.03 ЮЗ 2 18 км 5/0
[Ac trans Ci sp]
+30.5 +22.9 64 +40 +40 очень
душно
1010.6 1011.0
06 19.03 штиль 0 22 км 5/0
[Ac trans Ci sp]
+28.0 +23.3 76 +38 +38 очень
душно
1011.0 1011.0 +27.6
12 19.03 ЮЗ 2 26 км 3/0
[Ci sp]
+35.5 +21.7 45 +44 +66 опасность
перегрева
1011.3 1011.0
15 19.03 ЮЗ 2 26 км 5/4 540 м
[Cb cap Ac trans Ci sp]
+38.5 +22.1 39 +47 +53 опасность
перегрева
1007.7 1008.0
18 19.03 ЮЗ 2 26 км 8/1 900 м
[Cb cap Ac trans]
+36.5 +22.7 45 +46 +46 опасность
перегрева
1005.4 1005.0 +39.0
21 19.03 СВ 3 14 км гроза, ливневой дождь 9/8 400 м
[Cb cap Ac trans]
+32.2 +22.9 58 +42 +42 опасность
перегрева
1009.8 1010.0
00 20.03 штиль 0 16 км гроза без осадков {дождь} 9/5 400 м
[Cb cap Ac trans]
+25.5 +22.6 84 +34 +34 очень
душно
1011.7 1012.0 3
06 20.03 штиль 0 20 км {гроза, дождь} 9/4 360 м
[Sc Ac trans]
+25.5 +23.8 90 +35 +35 очень
душно
1012.4 1012.0 +24.6 4
09 20.03 ЮЗ 2 25 км 9/4 400 м
[Cu Sc Ac trans Cs]
+28.0 +23.6 77 +38 +42 очень
душно
1015.3 1015.0
18 20.03 штиль 0 22 км 8/3 500 м
[Cb cap Ac trans Cs]
+33.4 +23.3 56 +44 +44 опасность
перегрева
1009.4 1009.0 +35.0
21 20.03 штиль 0 18 км 6/0
[Ac trans Ci sp]
+31.3 +25.3 71 +46 +46 опасность
перегрева
1012.3 1012.0
00 21.03 штиль 0 18 км 6/0
[Ac trans Ci sp]
+30.0 +24.6 73 +43 +43 опасность
перегрева
1010.4 1010.0
03 21.03 ЮЗ 2 18 км 8/0
[Ac trans Cs]
+30.0 +23.9 70 +41 +41 опасность
перегрева
1010.3 1010.0
06 21.03 ЮЗ 1 20 км 9/3 360 м
[Sc Ac trans Cs]
+28.5 +24.5 79 +40 +40 очень
душно
1010.2 1010.0 +26.0
09 21.03 ЮЗ 1 20 км 9/3 400 м
[Cu Sc Ac trans Cs]
+30.7 +25.2 73 +45 +50 опасность
перегрева
1012.8 1013.0
12 21.03 ЮЗ 2 25 км 9/3 480 м
[Cu med, cong Ac trans Cs]
+35.5 +24.1 52 +47 +56 опасность
перегрева
1011.8 1012.0
15 21.03 СЗ 1 25 км 6/1 540 м
[Cu med, cong Ac trans Ci sp]
+38.2 +22.2 40 +47 +55 опасность
перегрева
1007.7 1008.0
21 21.03 ЮЗ 2 18 км 4/0
[Ci sp]
+33.3 +20.3 47 +40 +40 очень
душно
1009.3 1009.0
03 22.03 ЮЗ 3 18 км 5/0
[Ci sp]
+29.8 +24.4 73 +42 +42 опасность
перегрева
1009.5 1010.0
06 22.03 ЮЗ 3 20 км 9/9 360 м
[Sc]
+28.5 +24.6 79 +40 +40 очень
душно
1010.3 1010.0 +28.1
09 22.03 З 2 25 км 6/4 480 м
[Cu hum Ac trans Ci sp]
+30.6 +24.5 70 +43 +49 опасность
перегрева
1013.8 1014.0
12 22.03 Ю 2 25 км 5/3 480 м
[Cu med, cong Ci sp]
+35.1 +23.5 51 +46 +60 опасность
перегрева
1011.3 1011.0
15 22.03 ЮЗ 1 25 км 5/4 540 м
[Cu med, cong Ci sp]
+37.5 +24.1 46 +49 +56 опасность
перегрева
1008.1 1008.0
18 22.03 Ю 2 22 км 9/3 540 м
[Cb cap Ac trans Cs]
+35.2 +24.9 55 +48 +48 опасность
перегрева
1007.8 1008.0 +38.1
21 22.03 ЮЗ 2 16 км гроза без осадков 9/5 400 м
[Cb cap Ac trans]
+31.4 +24.1 65 +43 +43 опасность
перегрева
1010.2 1010.0

 

Местоположение метеостанции Kete-Krachi (Гана): широта 7.82 долгота -0.03 высота над уровнем моря 122 м.

В архиве по умолчанию представлена погода в Kete-Krachi за последнюю неделю. Архивные данные за месяц целиком и за предыдущие месяцы, начиная с января 2011 года, Вы можете получить, выбрав интересующий диапазон дат из раскрывающегося списка и нажав кнопку "Ввод!".

Внимание! Время в таблицах - всемирное. Для получения местного времени необходимо прибавить поправку, которая в Kete-Krachi равна 1 ч.

Смотрите также архив погоды в соседних городах и на ближайших метеорологических станциях:

Погода в Atakpame (Того) (130 км)
Погода в Ho (Гана) (146 км)
Погода в Abetifi (Гана) (151 км)
Погода в Yendi (Гана) (181 км)
Погода в Sokode (Того) (183 км)
Погода в Akuse (Гана) (192 км)
Погода в Koforidua (Гана) (195 км)
Погода в Tamale (Гана) (207 км)
Погода в Akatsi (Гана) (210 км)
Погода в Kumasi (Гана) (212 км)

Пояснения к столбцам:

Ветер - указаны скорость ветра в м/с - средняя за 10 мин, порывы в срок и между сроками (в фигурных скобках) и направление, откуда дует ветер: С - северный, СВ - северо-восточный, В - восточный, ЮВ - юго-восточный, Ю - южный, ЮЗ - юго-западный, З - западный, СЗ - северо-западный.
Видимость - горизонтальная дальность видимости в метрах или километрах. При видимости от 1 до 10 км при отсутствии осадков обычно наблюдается дымка, при ухудшении видимости до 1 км и менее - туман. В сухую погоду видимость может ухудшаться дымом, пылью или мглою.
Явления - указаны атмосферные явления, наблюдавшиеся в срок или в последний час перед сроком; фигурными скобками обозначены явления, наблюдавшиеся между сроками (за 1-3 часа до срока); квадратными скобками обозначены град или гололедные отложения с указанием их диаметра в мм.
Облачность - указаны через наклонную черту общая и нижняя облачность в баллах и высота нижней границы облаков в метрах; квадратными скобками обозначены формы облаков: Ci - перистые, Cs - перисто-слоистые, Cc - перисто-кучевые, Ac - высококучевые, As - высокослоистые, Sc - слоисто-кучевые, Ns - слоисто-дождевые, Cu - кучевые, Cb - кучево-дождевые. Подробнее классификацию облаков см. в Атласе облаков (PDF).
T - Температура воздуха - температура, измеренная на высоте 2 м над землей.
Td - Температура точки росы - температура, при понижении до которой содержащийся в воздухе водяной пар достигнет насыщения.
f - Относительная влажность воздуха - влажноcть воздуха, измеренная на высоте 2 м над землей.
Te - Эффективная температура - температура, которую ощущает одетый по сезону человек в тени. Характеристика душности погоды. При расчете учитывается влияние влажности воздуха и скорости ветра на теплоощущения человека.
Tes - Эффективная температура на солнце - температура, которую ощущает человек, с поправкой на солнечный нагрев. Характеристика знойности погоды. Зависит от высоты солнца над горизонтом, облачности и скорости ветра. Ночью, в пасмурную погоду, а также при ветре 12 м/с и более поправка равна нулю.
P - Атмосферное давление - приведенное к уровню моря атмосферное давление.
Po - Атмосферное давление - измеренное на уровне метеостанции атмосферное давление.
Tmin - Минимальная температура - минимум температуры воздуха на высоте 2 м над землей.
Tmax - Максимальная температура - максимум температуры воздуха на высоте 2 м над землей.
R - Количество осадков - Количество выпавших осадков, мм. При наведении курсора мыши на число - период времени, за который выпало указанное количество осадков.
S - Снежный покров - Высота снежного покрова, см. При наведении курсора мыши на число - состояние снежного покрова и степень покрытия местности в баллах.